[[{"header":{"parameterUnit":"m.s-1","parameterCategory":1,"la1":30.2991,"la2":30.254,"lo1":-89.0895,"lo2":-89.0444,"dy":0.0017,"dx":0.0017,"nx":28,"ny":28,"refTime":"2023-08-19T21:00:00:Z","depth":0,"parameterNumber":2,"parameterNumberName":"U-component_of_WINDS"},"data":[0,0,0,0,0,0,0,0,0,0,0,0,0,0,0,0,0,0,0,0,0,0,0,0,0,0,0,0,0,0,0,0,0,0,0,0,0,0,0,0,0,0,0,0,0,0,0,0,0,0,0,0,0,0,0,0,0,0,-6.102,-6.102,0,-6.1005,-6.1005,-6.1004,-6.0919,-6.0917,-6.0915,-6.0913,-6.0895,-6.0896,-6.0897,0,0,0,0,0,0,0,0,0,0,0,0,0,-6.0978,-6.0979,-6.102,-6.102,-6.102,-6.1005,-6.1005,-6.1004,-6.0919,-6.0917,-6.0914,-6.0912,-6.0894,-6.0896,-6.0898,0,0,0,0,0,0,0,0,0,0,0,0,0,-6.0983,-6.098,-6.1021,-6.0976,-6.0972,-6.1005,-6.1005,-6.1004,-6.092,-6.0916,-6.0913,-6.0911,-6.0894,-6.0896,-6.0898,-6.0972,0,0,-6.0904,-6.0905,0,0,0,0,0,0,0,0,-6.0983,-6.0984,-6.0983,-6.0979,-6.0974,-6.0961,-6.0983,-6.0993,-6.092,-6.0939,-6.0913,-6.0909,-6.0919,-6.0919,-6.0922,-6.0971,-6.0971,-6.0904,-6.0906,-6.0907,-6.0907,0,0,0,0,0,0,0,-6.0982,-6.0985,-6.1014,-6.0983,-6.0978,-6.0957,-6.0954,-6.0985,-6.0946,-6.0937,-6.0931,-6.0931,-6.0916,-6.0921,-6.0921,-6.097,-6.0904,-6.0906,-6.0908,-6.0908,-6.1082,-6.1086,0,0,0,0,0,0,-6.0988,-6.0985,-6.1015,-6.1014,-6.0971,-6.096,-6.0957,-6.0968,-6.0946,-6.094,-6.0933,-6.0927,-6.0918,-6.0919,-6.092,-6.1007,-6.0907,-6.0909,-6.091,-6.1079,-6.1083,-6.1087,0,0,0,0,0,0,-6.0988,-6.0992,-6.1015,-6.0998,-6.0999,-6.0964,-6.0977,-6.0969,-6.0974,-6.0943,-6.0935,-6.0945,-6.0916,-6.0917,-6.0961,-6.1005,-6.091,-6.0912,-6.1075,-6.108,-6.1085,-6.118,0,0,0,0,0,0,-6.0987,-6.0992,-6.1019,-6.0999,-6.1,-6.1055,-6.098,-6.0971,-6.0978,-6.0969,-6.0952,-6.0946,-6.0914,-6.0958,-6.0963,-6.1006,-6.0913,-6.1071,-6.1078,-6.1083,-6.1172,-6.1187,-6.12,0,0,0,0,0,-6.0986,-6.1046,-6.1021,-6.1025,-6.1034,-6.1058,-6.1059,-6.1021,-6.0982,-6.1009,-6.099,-6.0946,-6.1001,-6.0963,-6.0968,-6.1012,-6.1068,-6.1076,-6.1083,-6.1166,-6.1184,-6.12,0,0,0,0,0,0,-6.107,-6.1042,-6.1014,-6.1069,-6.1067,-6.1044,-6.1076,-6.1042,-6.105,-6.1041,-6.0994,-6.0991,-6.1042,-6.1032,-6.0991,-6.1085,-6.1027,-6.1036,-6.1089,-6.1106,-6.1119,-6.1119,-6.0915,0,0,0,0,0,-6.1095,-6.1118,-6.1092,-6.1143,-6.1144,-6.1111,-6.112,-6.1092,-6.1088,-6.1086,-6.1069,-6.1066,-6.1083,-6.1094,-6.1107,-6.1172,-6.1167,-6.1206,-6.122,-6.1231,-6.1238,-6.1273,-6.129,-6.1112,-6.1111,-6.1111,0,0,-6.1147,-6.1134,-6.1151,-6.116,-6.1154,-6.1179,-6.111,-6.1138,-6.1156,-6.109,-6.1129,-6.1119,-6.1112,-6.1167,-6.119,-6.116,-6.1288,-6.1241,-6.125,-6.1251,-6.1283,-6.13,-6.1315,-6.1117,-6.1116,-6.1115,0,0,-6.1253,-6.1246,-6.1288,-6.1286,-6.128,-6.1259,-6.127,-6.1253,-6.1243,-6.1283,-6.1235,-6.1256,-6.1285,-6.1283,-6.1286,-6.1398,-6.1358,-6.1404,-6.1475,-6.151,-6.1524,-6.1536,-6.1575,-6.159,-6.1412,-6.1412,-6.1412,0,-6.1316,-6.1351,-6.1314,-6.1347,-6.1353,-6.1297,-6.134,-6.1339,-6.1338,-6.1344,-6.1311,-6.1349,-6.134,-6.1395,-6.1423,-6.1427,-6.1438,-6.1403,-6.1525,-6.1537,-6.1547,-6.1584,-6.16,-6.1418,-6.1417,-6.1417,-6.1416,0,-6.1431,-6.1457,-6.1492,-6.1494,-6.1505,-6.1542,-6.1511,-6.1527,-6.15,-6.1483,-6.1526,-6.1516,-6.1526,-6.1538,-6.1511,-6.159,-6.1571,-6.1533,-6.1473,-6.1571,-6.1605,-6.1619,-6.1426,-6.1424,-6.1422,-6.1421,0,0,-6.1583,-6.1569,-6.1582,-6.1583,-6.1576,-6.1595,-6.1632,-6.1644,-6.1659,-6.1662,-6.1691,-6.172,-6.1685,-6.1689,-6.1662,-6.1693,-6.1783,-6.1651,-6.165,-6.1674,-6.187,-6.1897,-6.1914,-6.1759,-6.1761,-6.1764,-6.187,0,-6.1684,-6.1745,-6.1715,-6.178,-6.1804,-6.1755,-6.1787,-6.1787,-6.1773,-6.1792,-6.1777,-6.1798,-6.1751,-6.1753,-6.1782,-6.1766,-6.1821,-6.1758,-6.1785,-6.1786,-6.1785,-6.1932,-6.196,-6.206,-6.1883,-6.1885,-6.1887,0,-6.1807,-6.1818,-6.1886,-6.1877,-6.1886,-6.1916,-6.1926,-6.1945,-6.1945,-6.1933,-6.1941,-6.1908,-6.1944,-6.1889,-6.1939,-6.1897,-6.1907,-6.1902,-6.1905,-6.1903,-6.184,-6.1932,-6.2091,-6.2106,-6.1907,-6.1906,-6.1904,0,-6.1911,-6.1942,-6.1987,-6.199,-6.1981,-6.2004,-6.2001,-6.1998,-6.2009,-6.2019,-6.2025,-6.204,-6.2047,-6.2059,-6.2032,-6.1994,-6.2086,-6.2027,-6.2076,-6.2077,-6.2094,-6.2093,-6.2255,-6.2106,-6.2106,-6.2105,-6.2105,0,-6.2024,-6.2067,-6.2034,-6.2061,-6.2109,-6.2077,-6.2125,-6.2117,-6.2116,-6.2141,-6.2101,-6.2126,-6.2089,-6.2111,-6.2091,-6.2135,-6.2139,-6.2131,-6.2124,-6.2133,-6.2134,-6.2136,-6.2127,-6.2109,-6.2108,-6.2108,-6.2107,0,-6.2145,-6.2125,-6.217,-6.216,-6.2159,-6.2195,-6.2186,-6.2212,-6.2198,-6.2231,-6.2237,-6.2215,-6.2239,-6.2215,-6.2237,-6.2223,-6.2283,-6.2267,-6.2283,-6.2278,-6.2327,-6.2323,-6.2494,-6.2515,-6.2355,-6.2356,-6.2358,0,-6.2217,-6.225,-6.2245,-6.226,-6.226,-6.2285,-6.2296,-6.2267,-6.2281,-6.2286,-6.2312,-6.2333,-6.2348,-6.2389,-6.2375,-6.2392,-6.2375,-6.2435,-6.2377,-6.2386,-6.2374,-6.2372,-6.2375,-6.2445,-6.2447,-6.2448,-6.245,0,-6.2347,-6.2337,-6.2355,-6.2373,-6.2388,-6.24,-6.2408,-6.2423,-6.2393,-6.2411,-6.2436,-6.2449,-6.2473,-6.2495,-6.2509,-6.2506,-6.2473,-6.2469,-6.2481,-6.2488,-6.2496,-6.2491,-6.2312,-6.2464,-6.2462,-6.2461,-6.2461,-6.246,-6.2445,-6.2472,-6.2474,-6.2497,-6.2502,-6.2511,-6.2536,-6.2527,-6.2548,-6.2566,-6.2548,-6.2579,-6.2581,-6.2597,-6.2599,-6.2623,-6.2598,-6.2616,-6.262,-6.2624,-6.2631,-6.2495,-6.2626,-6.2626,-6.2625,-6.2625,-6.2625,0,-6.2571,-6.2572,-6.2594,-6.2608,-6.2628,-6.2599,-6.2607,-6.2625,-6.2653,-6.2659,-6.2676,-6.2706,-6.2729,-6.2719,-6.2738,-6.2759,-6.2745,-6.2765,-6.2762,-6.2762,-6.2653,-6.264,-6.2777,-6.2777,-6.2777,-6.2777,-6.2777,-6.2777,-6.2639,-6.2685,-6.2676,-6.2724,-6.2724,-6.2755,-6.2763,-6.2772,-6.2777,-6.2813,-6.2832,-6.2826,-6.2826,-6.2846,-6.2866,-6.2862,-6.2871,-6.2896,-6.2887,-6.2784,-6.2769,-6.2755,-6.2742,-6.2899,-6.2899,-6.2994,-6.2995,-6.2996]},{"header":{"parameterUnit":"m.s-1","parameterCategory":1,"la1":30.2991,"la2":30.254,"lo1":-89.0895,"lo2":-89.0444,"dy":0.0017,"dx":0.0017,"nx":28,"ny":28,"refTime":"2023-08-19T21:00:00:Z","depth":0,"parameterNumber":3,"parameterNumberName":"V-component_of_WINDS"},"data":[0,0,0,0,0,0,0,0,0,0,0,0,0,0,0,0,0,0,0,0,0,0,0,0,0,0,0,0,0,0,0,0,0,0,0,0,0,0,0,0,0,0,0,0,0,0,0,0,0,0,0,0,0,0,0,0,0,0,2.4311,2.4312,0,2.4417,2.4418,2.4419,2.4532,2.4534,2.4536,2.4537,2.4639,2.4641,2.4642,0,0,0,0,0,0,0,0,0,0,0,0,0,2.4203,2.4204,2.4311,2.4312,2.4313,2.4416,2.4418,2.4419,2.4532,2.4534,2.4536,2.4538,2.4639,2.464,2.4642,0,0,0,0,0,0,0,0,0,0,0,0,0,2.4273,2.4205,2.431,2.4382,2.439,2.4416,2.4418,2.442,2.4532,2.4534,2.4536,2.4539,2.4639,2.464,2.4642,2.4605,0,0,2.4648,2.4648,0,0,0,0,0,0,0,0,2.4269,2.4277,2.437,2.4377,2.4386,2.4464,2.4417,2.4481,2.4531,2.4477,2.4537,2.454,2.4579,2.4586,2.46,2.4609,2.4614,2.4648,2.4649,2.465,2.465,0,0,0,0,0,0,0,2.4264,2.4273,2.4352,2.4372,2.4381,2.4408,2.4421,2.443,2.4513,2.4482,2.4491,2.4502,2.4583,2.4598,2.4603,2.4615,2.4648,2.4649,2.465,2.4651,2.4601,2.4599,0,0,0,0,0,0,2.4249,2.4268,2.4349,2.4356,2.4332,2.4408,2.4422,2.4436,2.4513,2.4527,2.45,2.4507,2.4594,2.4601,2.4607,2.457,2.465,2.4651,2.4652,2.4604,2.4601,2.4598,0,0,0,0,0,0,2.4246,2.4255,2.4345,2.4314,2.4328,2.4407,2.4422,2.4437,2.4452,2.4527,2.4541,2.45,2.4596,2.4605,2.4605,2.4575,2.4652,2.4654,2.4607,2.4603,2.46,2.4493,0,0,0,0,0,0,2.4242,2.4253,2.424,2.4313,2.4329,2.4342,2.442,2.4437,2.4455,2.4466,2.453,2.4543,2.4598,2.4602,2.4607,2.4579,2.4655,2.461,2.4605,2.4601,2.45,2.4486,2.4475,0,0,0,0,0,2.4238,2.4204,2.4239,2.4248,2.4315,2.434,2.4349,2.4414,2.4452,2.444,2.4488,2.4541,2.4577,2.4601,2.4608,2.4579,2.4612,2.4606,2.4601,2.4505,2.4489,2.4475,0,0,0,0,0,0,2.4123,2.4215,2.4255,2.4244,2.4284,2.4359,2.4345,2.4395,2.4423,2.4431,2.451,2.4523,2.4515,2.4547,2.4572,2.4548,2.4602,2.4598,2.4527,2.4512,2.45,2.4492,2.4657,0,0,0,0,0,2.4097,2.4111,2.419,2.4173,2.4191,2.4265,2.4278,2.4325,2.4369,2.4385,2.4434,2.4472,2.4493,2.4505,2.4527,2.4505,2.4521,2.4489,2.4477,2.4466,2.4461,2.4454,2.4441,2.458,2.458,2.4581,0,0,2.4042,2.4095,2.4098,2.4152,2.4188,2.42,2.4278,2.4287,2.4296,2.4386,2.4391,2.4428,2.4476,2.4466,2.4464,2.4493,2.4427,2.4459,2.445,2.4451,2.4447,2.4433,2.4422,2.4577,2.4577,2.4578,0,0,2.3949,2.399,2.3981,2.4017,2.4072,2.4121,2.4119,2.4188,2.4217,2.4223,2.4291,2.4303,2.4336,2.4369,2.4389,2.4311,2.4361,2.4316,2.4251,2.4242,2.4231,2.4222,2.4194,2.4184,2.4311,2.4311,2.431,0,2.3874,2.3896,2.397,2.3976,2.3997,2.4082,2.4074,2.4104,2.4162,2.4175,2.4207,2.4252,2.429,2.429,2.4271,2.4285,2.4284,2.4308,2.4227,2.4218,2.4211,2.4186,2.4175,2.4305,2.4305,2.4306,2.4307,0,2.3801,2.3816,2.3802,2.3859,2.3879,2.3877,2.395,2.3961,2.4007,2.4053,2.4059,2.4108,2.4144,2.4147,2.4191,2.4153,2.4169,2.4213,2.4269,2.419,2.4168,2.4159,2.4296,2.4299,2.43,2.4302,0,0,2.3637,2.3738,2.3731,2.3759,2.3827,2.3839,2.3841,2.3878,2.3887,2.3924,2.3928,2.3956,2.3998,2.4021,2.407,2.4062,2.3998,2.4107,2.411,2.4086,2.396,2.3927,2.3914,2.4032,2.4031,2.4029,2.3956,0,2.3556,2.3568,2.3635,2.3626,2.3641,2.3723,2.3725,2.3766,2.3809,2.3827,2.3874,2.3893,2.3946,2.3961,2.3958,2.4006,2.3974,2.4013,2.4036,2.4035,2.4021,2.3903,2.3867,2.3796,2.3948,2.3947,2.3946,0,2.3463,2.3498,2.3492,2.3562,2.3571,2.3571,2.3612,2.3628,2.3676,2.3708,2.3736,2.3791,2.3798,2.3851,2.3861,2.3886,2.3899,2.3925,2.3924,2.3928,2.3985,2.3904,2.3775,2.3764,2.3932,2.3933,2.3934,0,2.3345,2.3391,2.3394,2.3415,2.3496,2.3495,2.3528,2.358,2.3598,2.3633,2.3646,2.3679,2.3698,2.3722,2.3785,2.3818,2.3788,2.3846,2.3814,2.3813,2.3804,2.3804,2.3675,2.3812,2.3812,2.3812,2.3813,0,2.3248,2.3241,2.3342,2.3343,2.3338,2.3415,2.3407,2.3448,2.3494,2.3504,2.3576,2.3584,2.3667,2.3684,2.3733,2.3734,2.3742,2.3767,2.378,2.3761,2.3758,2.3771,2.3777,2.381,2.381,2.3811,2.3811,0,2.3115,2.3183,2.3191,2.3269,2.3288,2.328,2.3346,2.3351,2.3399,2.3411,2.3418,2.3494,2.3518,2.3584,2.3623,2.3657,2.3644,2.3668,2.3628,2.3637,2.3602,2.3604,2.3477,2.3464,2.3608,2.3607,2.3605,0,2.3049,2.3046,2.3124,2.3137,2.3169,2.3188,2.3209,2.3284,2.3302,2.3359,2.3356,2.3386,2.3415,2.3449,2.3506,2.3538,2.3564,2.3517,2.3569,2.355,2.3564,2.3563,2.3564,2.3505,2.3503,2.3502,2.35,0,2.2924,2.2959,2.2986,2.3025,2.3048,2.3081,2.3119,2.3125,2.321,2.3226,2.3253,2.3275,2.3318,2.3347,2.3388,2.3422,2.3475,2.3484,2.3478,2.3458,2.3436,2.3448,2.3598,2.3486,2.3488,2.3489,2.3489,2.349,2.2824,2.2826,2.2882,2.291,2.2947,2.2981,2.2989,2.304,2.3064,2.3106,2.3149,2.3171,2.3221,2.3282,2.3312,2.333,2.3358,2.335,2.3348,2.3344,2.3336,2.3433,2.3338,2.3338,2.3339,2.3339,2.3339,0,2.2704,2.2745,2.277,2.2822,2.2844,2.2895,2.2939,2.2954,2.2974,2.3017,2.3044,2.3075,2.3104,2.3165,2.3199,2.3202,2.3227,2.3208,2.3209,2.3216,2.3309,2.331,2.3188,2.3188,2.3188,2.3188,2.3188,2.3188,2.2644,2.265,2.2691,2.2716,2.2757,2.2781,2.2803,2.2834,2.287,2.2902,2.2927,2.2967,2.3018,2.3057,2.3086,2.3103,2.3112,2.3085,2.311,2.3195,2.3209,2.3223,2.3225,2.3086,2.3086,2.3016,2.3016,2.3015]}]]